Regional Weather Roundup
Issued by NWS

Home | Current Version | Previous Version | Graphics & Text | Print | Product List | Glossary Off
Versions: 1 2 3 4 5 6 7 8 9 10 11 12 13 14 15 16 17 18 19 20 21 22 23 24 25 26 27 28 29 30 31 32 33 34 35 36 37 38 39 40 41 42 43 44 45 46 47 48 49 50

000
ASUS43 KMKX 020200
RWRWI

WISCONSIN REGIONAL WEATHER ROUNDUP
NATIONAL WEATHER SERVICE MILWAUKEE/SULLIVAN WI
900 PM CDT WED OCT 01 2014

NOTE: "FAIR" INDICATES FEW OR NO CLOUDS BELOW 12,000 FEET WITH NO
SIGNIFICANT WEATHER AND/OR OBSTRUCTIONS TO VISIBILITY.

WIZ001-002-006>008-014>016-023>028-020300-
NORTHWEST WISCONSIN

CITY           SKY/WX    TMP DP  RH WIND       PRES   REMARKS
SUPERIOR ARPT  CLOUDY    52  51  98 CALM      29.82R
ASHLAND        CLOUDY    54  52  93 S5        29.84S
HAYWARD        CLOUDY    54  53  97 S5        29.84S FOG
SIREN          CLOUDY    53  53  98 CALM      29.84R FOG
CUMBERLAND     CLOUDY    52  52 100 S3        29.84S FOG
RICE LAKE      CLOUDY    54  53  96 CALM      29.86R FOG
CHETEK         CLOUDY    55  54  97 CALM      29.85R FOG
LADYSMITH      CLOUDY    55  54  95 CALM      29.87S FOG
EAU CLAIRE     CLOUDY    56  55  97 CALM      29.84R
MENOMONIE      CLOUDY    56  55  97 CALM      29.85R FOG
NEW RICHMOND   CLOUDY    55  55 100 SE3       29.83S FOG
OSCEOLA        CLOUDY    56  56 100 CALM      29.85R FOG
$$

WIZ003>005-009-010-017-018-020300-
NORTH CENTRAL WISCONSIN

CITY           SKY/WX    TMP DP  RH WIND       PRES   REMARKS
MANITOWISH WTR CLOUDY    53  53 100 S5        29.86S FOG
ARBOR VITAE    LGT RAIN  57  55  94 S3        29.87S
WOODRUFF       LGT RAIN  57  55  94 S3        29.87S
RHINELANDER    CLOUDY    55  52  89 S7        29.89S
EAGLE RIVER    DRIZZLE   53  53  98 SE3       29.87F
LAND O LAKES   CLOUDY    54  52  94 S3        29.89R FOG
PHILLIPS       CLOUDY    54  53  97 S6        29.86S
TOMAHAWK       CLOUDY    55  52  88 S6        29.88R
MEDFORD        CLOUDY    55  53  92 S5        29.86S
MERRILL        CLOUDY    56  54  92 SE7       29.87S
$$

WIZ029-030-035-036-043>047-020300-
CENTRAL WISCONSIN

CITY           SKY/WX    TMP DP  RH WIND       PRES   REMARKS
WAUSAU         LGT RAIN  57  52  83 SE9       29.88R
MOSINEE        CLOUDY    55  54  94 SE13      29.89R
MARSHFIELD     CLOUDY    58  55  90 SE7       29.86S
STEVENS POINT  CLOUDY    56  51  82 E7        29.89S
WAUPACA        CLOUDY    59  53  79 SE10      29.90S
WAUTOMA        NOT AVBL
WISC RAPIDS    CLOUDY    60  54  80 SE7       29.88S
CAMP DOUGLAS   NOT AVBL
$$

WIZ011>013-019>022-031-037>040-048>050-020300-
NORTHEAST WISCONSIN

CITY           SKY/WX    TMP DP  RH WIND       PRES   REMARKS
ANTIGO         CLOUDY    53  51  95 SE9       29.91R
SHAWANO        CLOUDY    57  52  84 SE6       29.92S
OCONTO         CLOUDY    55  52  90 S9        29.93S
STURGEON BAY   NOT AVBL
GREEN BAY      CLOUDY    56  52  86 SE7       29.93F
MANITOWOC      NOT AVBL
APPLETON       CLOUDY    57  52  82 SE12      29.92S
CLINTONVILLE   CLOUDY    55  50  82 SE5       29.91S
OSHKOSH        CLOUDY    58  53  84 SE8       29.90F
$$

WIZ032>034-041-042-053>061-020300-
SOUTHWEST WISCONSIN

CITY           SKY/WX    TMP DP  RH WIND       PRES   REMARKS
LA CROSSE      CLOUDY    64  56  75 E7        29.82R
SPARTA         CLOUDY    59  55  88 CALM      29.85R
VIROQUA        CLOUDY    63  56  77 SE6       29.85R
BOSCOBEL       CLOUDY    66  59  78 CALM      29.84R
PRAIRIE DU CHI CLOUDY    67  57  70 CALM      29.82S
PLATTEVILLE    CLOUDY    68  59  73 SE6       29.86S
$$

WIZ056-057-062-063-064-067-068-020300-
SOUTH CENTRAL WISCONSIN

CITY           SKY/WX    TMP DP  RH WIND       PRES   REMARKS
REEDSBURG      LGT RAIN  64  56  76 CALM      29.85S
BARABOO/DELLS  CLOUDY    63  53  69 E3        29.87R
LONE ROCK      NOT AVBL
MINERAL POINT  CLOUDY    68  55  64 SE7       29.87R
MADISON        CLOUDY    62  53  72 SE7       29.88R
MIDDLETON      CLOUDY    64  54  68 SE7       29.88R
WATERTOWN      CLOUDY    59  53  81 SE5       29.89F
MONROE         CLOUDY    64  55  72 E7        29.87R
JANESVILLE     CLOUDY    63  54  72 E6        29.88R
$$

WIZ051-052-058>065-066-070>072-020300-
SOUTHEAST WISCONSIN

CITY           SKY/WX    TMP DP  RH WIND       PRES   REMARKS
MILWAUKEE      NOT AVBL
WAUKESHA       CLOUDY    57  52  82 SE12      29.93S
MILWAUKEE/TIMM CLOUDY    61  54  77 E6        29.92F
RACINE         CLOUDY    64  55  72 SE12      29.94S
BURLINGTON     CLOUDY    59  53  80 E5        29.90F
KENOSHA        NOT AVBL
FOND DU LAC    NOT AVBL
SHEBOYGAN      CLOUDY    57  53  86 SE5       29.94S
WEST BEND      CLOUDY    55  52  88 SE6       29.93F
JUNEAU         CLOUDY    58  52  78 E10       29.90F
$$

LSZ147-162-020300-
LAKE SUPERIOR

STATION/POSITION TIME  TEMP    WIND        PRES    WAVE
                       AIR SEA DIR/SP/G            HT/PER
                 (UTC) (F)     (DEG/KT/KT) (MB)    (FT/S)
W MID LAKE BUOY  0050   49 50   90/  6/  8 1010.1R   1
DEVILS ISLAND    0100   51     140/  5/  6 1010.4R
SAXON HARBOR     0100   53        CALM     1010.2R
$$

LMZ867-665-643>646-020300-
LAKE MICHIGAN

STATION/POSITION TIME  TEMP    WIND        PRES    WAVE
                       AIR SEA DIR/SP/G            HT/PER
                 (UTC) (F)     (DEG/KT/KT) (MB)    (FT/S)
CHAMBERS ISLAND  0100   56     150/  3/ 13 1014.6R
S GREEN BAY BUOY 0000   56                 1014.2
N MID LAKE BUOY  0050   56 58  170/  8/ 10 1014.6F   1/ 3
NORTHPORT PIER   0100   56     150/  8/ 12 1014.2R
KEWAUNEE LAKESHO 0100   55     180/ 11/ 12 1013.2R
SHEBOYGAN LAKESH 0100   56 57  160/ 10/ 11 1014.4R
PORT WASHINGTON  0140   59     130/  3/  4 1014.2S
ATWATER BUOY     0000   58     130/ 10/ 12 1014.6R
MILWAUKEE LAKESH 0100   59     120/  5/  6   N/A
S MID LAKE BUOY  0050   63 62  130/ 12/ 16 1014.1R   2/ 3
KENOSHA   LAKESH 0100   62     130/ 13/ 15 1012.9S
$$

TC  - TEMPERATURE IN CELSIUS
VSB - VISIBILITY IN STATUTE MILES
WCI - WIND CHILL INDEX
HX  - HEAT INDEX




USA.gov is the U.S. government's official web portal to all federal, state and local government web resources and services.